Aérodrome :
LOGIN :

S'inscrire | Disclaimer

   EN    FR    IT 

 










Légende :    VFR   VFR Marginal   IFR   IFR Intensif   IFR Très Intensif
Visi : 
Plafond : 
>= 8 km
>= 3000ft
5 à 8 km
1000 à 3000 ft
1500m à 5 km
500 à 1000 ft
800 à 1500m
200 à 500 ft
< 800m
< 200 ft
Symboles :   Orages  Brouillard  Fortes neiges  Fortes précipitations  Vent > 20 kt
SIGMETs :   Divers  Orages  Givrage  Turbulence  Onde Orograph.  Cendres Volcan.







- Altitude de l'aérodrome : 1106 ft
- Voir les cartes d'approche


LFSO - Nancy / Ochey

DERNIER METAR :
  • 180730Z AUTO 17014KT CAVOK 06/02 Q1021 NOSIG

METARs EXPIRÉS :
  • 180700Z AUTO 17011KT CAVOK 06/02 Q1020 NOSIG
  • 180630Z AUTO 18012KT CAVOK 06/02 Q1021 NOSIG
  • 180600Z AUTO 18012KT CAVOK 07/02 Q1021 NOSIG
  • 180530Z AUTO 18010KT CAVOK 06/01 Q1021
  • 180500Z AUTO 17006KT 130V190 CAVOK 06/01 Q1021

TAF AMD TAF LFSO
Valide du 18 à 05h jusqu'au 19 à 03h UTC


180530Z 1805/1903 17008KT CAVOK
TEMPO 1810/1814 20015G25KT
Pas de NOTAMs connus pour ce terrain.



MET'MAP, la Météo Aéronautique d'un coup d'oeil ! - Copyright ORBIFLY Décembre 2007 - Disclaimer

ORBIFLY MET'MAP TEAM :

Programmation & Développement : Alexandra Zaïnal
Conception & Développement : Baudouin d'Aumeries
Co-Programmation & Développement : Marc-Olivier Méhu
Soutien technique & logistique : Manuel Goepfert

Contact : metmap@orbifly.com




SOURCES & CREDITS :

   NOAA